SCP
12 12 10 8 7 5 4 3 3 2 2 2 2 2 3 4 4 3 2 2 1 1 1 1 1 0 0 0 0 0 0 1 1 0 0 0 0 0 0 0 0 0 0
11 11 9 8 6 5 4 3 2 2 2 2 2 2 3 3 4 3 2 2 1 1 1 1 0 0 0 0 0 0 0 0 0 0 0 0 0 0 0 0 0 0 0
9 9 8 6 5 4 3 2 2 2 2 2 2 2 3 3 3 3 3 2 2 1 1 1 0 0 1 1 1 1 1 0 0 0 0 0 0 0 0 0 0 0 0
10 8 6 5 4 3 2 2 1 2 2 1 1 1 2 2 3 3 2 2 2 2 1 1 1 1 1 1 1 1 1 1 1 1 1 0 0 0 0 0 0 0 0
11 9 6 3 3 3 2 2 2 2 1 1 1 1 1 1 1 1 1 2 2 2 2 1 1 1 1 1 1 1 1 1 1 1 1 1 0 0 0 0 0 0 0
10 8 5 3 3 3 3 3 2 2 2 1 1 0 0 0 0 0 1 1 2 2 2 2 2 1 1 1 1 1 1 1 1 1 1 1 1 0 0 0 0 0 0
6 5 3 3 3 3 4 4 3 3 2 1 1 1 1 1 0 0 0 1 2 2 2 2 1 1 1 0 0 0 1 1 1 1 1 1 1 1 0 0 0 0 0
4 3 3 3 4 5 5 5 5 5 4 2 2 1 1 1 1 0 0 1 2 2 2 2 1 1 0 0 0 0 0 0 0 0 0 1 1 1 0 0 0 0 0
3 3 3 3 4 5 6 6 7 6 5 4 3 2 2 2 2 1 1 1 2 3 2 2 1 1 0 0 0 0 0 0 0 0 0 0 0 0 0 0 0 0 0
3 3 3 4 5 6 7 8 9 8 6 5 3 2 2 3 3 2 1 3 4 4 3 2 1 0 0 0 0 0 0 0 0 0 0 0 0 0 0 0 0 0 0
2 3 4 5 6 7 8 9 9 8 7 5 4 3 3 4 4 3 1 3 5 5 4 2 1 0 0 0 0 0 0 0 0 0 0 0 0 0 0 0 0 0 0
3 3 4 6 8 8 9 9 8 7 6 5 3 3 3 4 5 3 1 2 3 5 4 3 1 0 0 0 0 0 0 0 0 0 0 0 0 0 0 0 0 0 0
3 4 5 7 8 8 8 7 6 5 4 4 3 3 4 4 4 3 1 1 1 3 3 2 1 0 0 0 0 0 0 0 0 0 0 0 0 0 0 0 0 0 0
4 4 5 6 6 6 6 6 5 5 4 4 3 3 3 3 3 2 1 0 0 1 1 1 0 0 0 0 0 0 0 0 0 1 1 1 1 0 0 0 0 0 0
5 5 5 5 4 5 5 5 5 5 4 4 3 3 2 2 1 1 1 0 0 0 0 0 0 0 0 0 0 0 0 0 1 1 1 1 1 1 0 0 0 0 0
5 5 5 4 4 4 5 5 5 4 3 2 2 2 1 1 0 0 0 0 0 0 0 0 0 0 0 0 0 0 1 1 1 1 1 1 1 1 1 0 0 0 0
5 5 5 4 4 4 5 5 4 3 2 1 1 1 1 0 0 0 0 0 0 0 0 0 0 0 0 0 0 0 1 1 1 1 0 1 1 1 1 0 0 0 0
4 4 4 4 4 3 4 4 3 2 1 0 0 0 0 0 0 0 0 0 0 0 0 0 0 0 0 0 0 0 1 1 1 1 0 1 1 1 1 1 0 0 0
2 2 2 2 2 2 2 2 2 1 1 0 0 0 0 0 0 0 0 0 0 0 0 0 0 0 0 0 0 0 1 1 1 1 1 1 1 1 1 1 0 0 0
1 1 1 1 1 1 1 1 0 0 0 0 0 0 0 0 0 0 0 0 0 0 0 0 0 0 0 0 0 0 0 1 1 1 1 1 1 1 1 1 0 0 0
0 0 0 0 0 0 0 0 0 0 0 0 0 0 0 0 0 0 0 0 0 0 0 0 0 0 0 0 0 0 0 0 1 1 1 1 1 1 2 1 1 0 0
0 0 0 0 0 0 0 0 0 0 0 0 0 0 0 0 0 0 0 0 0 0 0 0 0 0 0 0 0 0 0 0 1 1 1 1 1 1 2 1 1 0 0
0 0 0 0 0 0 0 0 0 0 0 0 0 0 0 0 0 0 0 0 0 0 0 0 0 0 0 0 0 0 0 0 0 1 1 1 1 1 2 1 1 1 0
1 0 0 0 0 0 0 0 0 0 0 0 0 0 0 0 0 0 0 0 0 0 0 0 0 0 0 0 0 0 0 0 0 0 1 1 1 1 2 2 1 1 1
1 1 0 0 0 0 0 0 0 0 0 0 0 0 0 0 0 0 0 0 0 0 0 0 0 0 0 0 0 0 0 0 0 0 1 1 1 2 2 2 1 1 1
1 1 1 0 0 0 0 0 0 0 0 0 0 0 0 0 0 0 0 0 0 0 0 0 0 0 0 0 0 0 0 0 0 0 0 1 1 2 2 2 1 1 1
Wind_Speed
3 3 3 2 2 2 2 2 2 1 1 1 1 1 1 1 2 2 1 1 1 0 0 0 0 0 0 0 0 0 1 1 2 1 1 1 1 1 2 1 1 0 1
4 3 3 2 2 2 1 1 2 2 1 1 2 2 2 2 2 2 2 1 1 1 1 0 1 0 0 1 0 0 0 1 1 1 1 1 1 1 2 1 1 1 1
4 4 3 2 2 2 1 1 2 2 1 1 2 2 2 2 2 2 2 2 2 1 1 1 1 0 0 0 0 0 0 0 1 1 1 1 1 1 1 1 2 2 2
4 4 3 3 2 2 2 1 2 2 2 2 2 2 2 2 2 2 2 2 1 1 1 1 2 2 2 1 1 1 1 0 0 0 1 1 1 1 1 1 2 2 2
4 3 3 2 2 2 2 1 1 1 2 2 2 1 1 1 1 2 2 2 2 1 1 1 2 2 2 2 1 2 2 1 1 1 1 1 1 1 1 1 1 2 2
4 3 2 2 2 2 2 1 1 1 1 1 1 1 1 1 1 2 2 2 2 2 1 1 2 2 2 2 2 2 3 3 2 2 2 2 3 3 2 1 1 1 2
2 2 2 2 2 2 2 1 1 1 1 1 1 1 1 1 1 2 2 2 2 2 2 1 1 1 2 1 2 2 2 3 4 4 3 4 3 3 2 2 2 2 3
2 2 1 2 2 2 2 2 1 1 1 1 1 1 1 1 2 2 2 2 1 1 1 2 2 2 1 1 1 1 2 2 3 3 4 4 4 4 4 4 3 2 2
2 2 2 2 3 2 2 2 2 1 1 1 2 2 1 2 2 2 2 1 1 1 1 1 1 2 2 1 1 1 2 3 2 2 3 3 3 3 2 1 1 1 2
2 3 3 3 3 3 3 2 2 2 2 2 1 2 2 2 2 2 2 1 1 1 1 1 2 2 2 1 2 2 2 3 3 2 2 2 2 2 2 3 3 2 2
1 1 1 2 3 3 2 2 2 2 2 1 2 1 2 2 3 3 3 2 3 2 2 2 2 3 3 2 2 3 4 3 2 2 2 2 2 2 1 2 3 3 3
1 1 1 1 1 1 2 1 2 2 1 1 1 1 2 2 3 3 4 4 4 3 3 3 3 3 3 3 2 2 3 2 1 1 2 2 2 2 2 2 3 3 4
2 1 1 0 0 1 1 2 1 1 1 2 2 2 2 2 2 4 4 4 4 3 3 3 3 3 3 2 2 2 2 1 1 1 2 3 2 3 3 2 2 2 2
2 1 0 1 0 0 1 1 2 2 2 2 2 2 2 2 2 2 2 2 2 2 2 2 2 1 1 1 1 1 1 2 2 2 3 3 2 2 1 1 1 1 1
1 1 0 0 0 0 0 1 2 2 3 3 3 2 2 3 4 4 2 2 2 2 1 0 0 0 1 1 1 1 1 1 2 2 2 2 2 2 1 1 1 1 1
2 1 1 1 1 0 0 1 2 1 1 3 3 3 3 4 3 3 3 3 3 3 2 1 1 2 2 2 2 2 1 2 2 2 2 2 2 2 2 1 1 1 1
2 2 1 1 1 1 1 1 1 2 1 2 3 3 4 3 3 2 2 2 2 3 2 2 2 2 2 2 2 2 2 2 2 1 2 2 2 2 1 1 1 1 2
2 2 2 2 2 2 1 1 1 1 2 2 2 2 2 3 3 2 1 2 1 1 2 2 3 2 2 2 2 2 2 2 1 1 2 2 2 1 1 2 2 2 2
2 2 2 2 2 1 1 1 1 1 1 2 2 2 1 0 0 1 2 1 2 2 3 3 3 2 2 2 2 2 2 2 2 1 1 2 2 2 2 2 2 2 2
1 2 2 2 1 1 2 1 1 1 2 2 2 2 0 1 0 0 1 2 2 3 3 3 3 3 3 2 2 2 2 1 1 1 2 1 2 2 2 2 2 2 2
1 1 2 1 2 2 2 2 2 2 2 2 2 2 2 2 2 2 2 3 3 3 3 3 2 2 2 2 2 2 2 1 2 2 2 2 2 2 2 2 2 2 1
1 1 1 2 2 2 2 2 2 2 3 3 2 2 2 2 2 2 2 2 2 2 2 2 2 2 2 2 2 2 2 2 2 2 2 2 1 1 1 1 1 1 1
1 1 1 1 1 2 2 2 2 2 2 2 2 2 2 2 2 2 2 2 2 1 1 2 2 1 1 2 2 2 3 3 2 2 2 1 1 1 1 1 2 2 2
2 2 2 2 1 1 2 2 2 2 2 2 2 2 2 2 2 2 2 1 1 1 1 1 2 2 2 2 2 2 2 3 3 2 3 2 2 2 2 2 2 2 2
2 2 2 2 2 2 2 2 2 2 2 2 2 2 2 2 2 2 2 1 2 2 2 2 2 2 3 3 3 2 2 2 2 2 2 2 3 2 2 2 2 2 2
2 2 2 2 2 2 2 2 2 2 2 2 2 2 2 2 2 2 1 1 1 1 2 2 2 2 3 3 3 3 2 2 2 2 2 2 2 2 2 1 2 2 2
Wind_Direction
151 147 141 149 138 129 137 150 143 133 131 142 158 163 164 156 140 134 152 145 133 102 337 111 327 328 360 348 44 117 163 182 211 274 281 309 326 338 341 337 332 320 318
151 144 149 145 136 128 141 157 145 151 153 131 148 168 177 163 150 150 170 163 164 196 249 117 304 346 29 19 68 97 173 193 191 252 305 318 302 298 316 320 327 331 316
145 144 140 141 141 158 177 168 154 161 146 137 139 152 167 165 163 170 181 186 193 206 209 197 240 177 253 46 102 109 147 131 171 208 278 301 303 314 319 316 329 327 319
152 149 153 168 189 194 183 171 167 162 148 142 137 154 168 167 168 183 190 195 209 227 219 202 207 198 212 214 202 219 187 134 118 218 275 300 292 295 292 310 324 328 318
155 158 176 182 172 169 164 166 162 149 135 131 125 132 156 163 179 184 195 199 213 236 234 224 216 208 210 205 202 211 198 192 186 226 274 298 298 295 277 271 286 307 305
166 168 162 154 163 178 178 160 149 143 126 119 134 149 165 213 192 188 186 195 213 222 235 260 261 257 257 235 230 217 204 208 214 219 242 257 265 256 249 245 255 287 295
155 160 162 164 174 192 184 150 171 173 167 169 184 181 202 236 209 203 189 183 200 216 221 245 275 289 264 250 262 265 249 241 218 210 231 249 254 248 241 249 244 250 263
155 172 177 179 187 194 174 176 193 188 189 202 207 225 229 260 240 207 173 163 181 222 228 227 243 281 271 227 240 279 285 278 254 230 235 251 255 250 229 232 236 250 269
177 195 201 194 194 195 199 207 204 191 212 219 210 211 220 264 244 214 177 151 172 256 262 258 259 276 300 235 188 246 286 294 289 255 247 265 280 272 231 201 212 237 275
215 218 204 192 192 200 208 211 210 195 215 214 219 224 224 248 248 228 204 178 201 252 276 280 282 278 290 252 208 221 256 280 303 319 313 309 304 300 224 207 214 225 255
201 190 194 194 195 192 195 192 188 189 192 210 223 246 242 243 246 229 208 195 207 228 248 263 274 279 269 254 219 219 235 250 278 291 300 312 321 322 298 243 223 219 229
146 145 173 213 192 155 158 161 168 172 182 223 234 265 269 256 240 237 222 214 207 212 239 252 266 270 262 251 228 229 227 224 256 283 296 302 304 303 297 277 250 235 236
142 163 183 152 99 135 162 165 165 180 199 235 232 243 264 265 248 240 237 228 220 219 238 250 261 267 258 247 245 237 219 222 241 267 275 280 282 287 292 294 282 261 264
159 187 199 167 175 103 154 173 179 199 214 233 242 249 260 265 263 256 245 238 231 232 247 264 270 278 249 277 296 268 232 223 222 247 266 274 287 293 294 297 291 302 298
150 146 177 229 214 300 306 241 212 217 207 213 232 230 240 259 259 242 224 228 222 216 193 183 15 328 300 294 283 282 269 238 238 248 257 275 284 288 291 296 276 266 278
164 189 205 221 234 250 292 341 355 257 235 229 228 219 243 251 264 253 233 226 218 187 159 193 226 237 244 255 263 269 266 259 257 251 254 259 267 271 282 291 281 265 276
190 206 214 218 224 234 231 243 312 335 331 264 253 244 242 251 251 257 253 228 190 159 178 228 238 243 245 246 249 253 260 269 270 258 260 266 262 264 264 274 281 278 278
199 204 203 211 215 218 218 225 234 271 308 322 321 286 268 252 243 238 178 117 110 174 227 241 245 246 246 250 254 261 268 272 264 254 257 265 259 260 266 267 264 267 271
204 212 212 212 213 213 214 219 236 255 273 294 314 322 318 288 156 179 155 173 215 235 241 243 240 239 243 246 253 257 262 260 263 262 265 264 257 254 260 268 273 276 268
217 225 214 208 211 210 211 217 234 247 260 268 277 288 345 57 23 242 212 229 234 241 243 241 237 233 234 237 239 239 244 253 258 262 270 268 264 256 258 264 269 274 276
219 228 212 211 223 223 220 222 227 238 250 257 263 269 236 226 238 244 239 236 233 234 237 241 240 236 234 231 228 226 231 247 256 258 259 259 258 255 256 257 260 265 282
198 213 209 221 230 228 226 228 227 235 246 256 274 276 250 245 242 246 244 246 241 234 228 224 228 229 228 225 226 226 227 240 255 255 257 258 255 256 254 253 273 287 296
196 213 221 232 231 232 231 231 234 241 247 253 260 262 251 258 257 247 241 244 244 230 208 193 202 229 250 246 238 229 234 244 248 243 244 248 252 253 256 264 273 284 292
204 215 218 222 220 222 229 238 242 247 250 257 260 258 254 247 246 244 239 241 228 220 210 203 207 219 234 247 247 243 249 254 249 237 232 231 236 246 255 263 265 268 277
212 218 219 220 220 224 232 242 248 248 246 243 248 249 250 247 248 247 232 226 214 213 218 217 220 225 236 246 253 254 252 244 243 247 238 228 228 233 242 258 268 274 271
218 221 224 222 224 229 230 238 245 242 241 245 245 247 251 252 247 243 227 221 218 222 226 226 233 234 241 250 260 256 242 244 248 244 234 225 223 228 230 241 261 258 258